Creek Data

    Home     View Charts     View Raw Data     Messages

ID Distance Battery Voltage Battery Current Internal Temp Internal Humidity External Temp Solar Input rssi snr Time Stamp Record
35811 0.0 4.05 0 81 37 69 5.1 -83 9 03/23/2025 02:15 PM 17582
35810 0.0 4.06 0 82 36 69 5.1 -83 8 03/23/2025 02:00 PM 17581
35809 0.0 4.05 0 81 36 70 5.1 -83 8 03/23/2025 01:46 PM 17580
35808 0.0 4.05 0 79 36 70 5.1 -84 9 03/23/2025 01:30 PM 17579
35807 0.0 4.05 0 77 37 68 5.1 -83 9 03/23/2025 01:15 PM 17578
35806 0.0 4.05 0 77 37 70 5.1 -83 8 03/23/2025 01:00 PM 17577
35805 0.0 4.05 0 75 37 67 5.1 -84 8 03/23/2025 12:45 PM 17576
35804 0.0 4.05 0 73 37 67 5.1 -84 8 03/23/2025 12:30 PM 17575
35803 15.4 4.05 0 72 37 66 5.1 -84 8 03/23/2025 12:15 PM 17574
35802 0.0 4.05 0 70 37 64 5.1 -84 8 03/23/2025 12:00 PM 17573
35801 0.0 4.05 0 68 38 64 5.1 -83 8 03/23/2025 11:45 AM 17572
35800 0.0 4.05 0 66 38 63 5.1 -81 8 03/23/2025 11:30 AM 17571
35799 0.0 4.07 0 66 38 63 5.1 -81 7 03/23/2025 11:15 AM 17570
35798 0.0 4.05 0 65 37 63 5.1 -81 8 03/23/2025 11:00 AM 17569
35797 0.0 4.15 0 64 37 62 5.1 -82 8 03/23/2025 10:45 AM 17568
35796 15.3 4.05 0 62 37 61 5.1 -81 8 03/23/2025 10:30 AM 17567
35795 0.0 4.05 0 61 37 61 5.1 -82 7 03/23/2025 10:15 AM 17566
35794 15.4 4.05 0 59 37 59 5.1 -81 7 03/23/2025 10:00 AM 17565
35793 15.4 4.05 0 58 37 58 5.1 -83 8 03/23/2025 09:45 AM 17564
35792 15.4 4.05 0 56 37 58 5.1 -82 8 03/23/2025 09:30 AM 17563
35791 15.3 4.05 0 54 37 56 5.1 -82 7 03/23/2025 09:15 AM 17562
35790 15.3 4.05 0 53 38 55 5.1 -81 8 03/23/2025 09:00 AM 17561
35789 15.3 4.05 0 51 38 55 5.1 -82 8 03/23/2025 08:45 AM 17560
35788 15.2 4.14 35 50 38 54 4.5 -82 8 03/23/2025 08:30 AM 17559
35787 15.1 4.11 49 49 38 52 4.5 -81 8 03/23/2025 08:15 AM 17558